Helicity
104 105 76 70 81 96 69 81 131 86 68 119 106 128 107 96 105 104 102 76 53 88 81 57 73 93 105 121 112 94 78 101 82 104 63 86 139 151 197 210 214 310 330 378
97 90 80 81 97 92 52 105 99 93 111 148 133 112 102 101 104 114 139 140 112 88 105 89 80 91 133 161 158 111 79 99 65 52 78 104 137 215 223 207 220 306 316 268
65 70 67 83 96 101 73 99 118 106 116 120 119 114 99 119 122 93 109 126 147 160 142 141 152 129 143 119 79 96 109 139 152 191 158 132 142 254 212 225 271 314 408 310
55 57 72 88 106 100 94 105 111 105 153 143 110 129 126 133 152 132 137 166 200 178 171 184 170 174 81 68 42 103 128 117 138 177 148 171 212 166 151 258 314 304 272 273
75 76 85 95 100 89 117 134 128 118 122 131 161 148 147 126 142 161 187 204 187 181 174 195 133 114 74 1 55 124 124 93 62 4 60 55 110 222 89 120 154 223 191 172
67 68 70 83 92 110 110 100 117 132 119 155 154 162 153 198 132 131 192 168 148 120 123 157 123 99 83 130 125 122 118 127 103 106 87 9 22 8 100 119 151 185 170 136
57 60 56 65 63 74 80 93 132 157 137 149 146 201 190 136 134 147 113 97 102 105 111 60 70 88 101 162 183 236 233 257 173 131 42 42 74 44 52 77 128 177 107 82
73 68 64 61 55 64 96 93 119 130 144 122 91 132 126 112 88 91 62 47 71 99 78 73 71 55 97 106 174 146 239 285 229 161 127 58 33 72 43 64 36 39 60 27
68 59 49 42 38 66 119 103 104 124 140 64 83 144 119 141 112 97 84 82 80 110 90 140 214 182 141 97 126 152 138 162 209 214 136 71 79 56 10 63 81 10 27 9
75 77 75 74 68 81 113 117 101 137 135 120 167 133 125 115 114 112 86 64 129 130 141 138 169 182 192 161 136 143 176 176 120 149 180 69 14 28 51 118 65 48 56 21
112 100 100 108 129 123 122 142 89 154 164 167 187 199 191 146 138 159 111 108 119 151 167 160 146 161 123 177 172 140 128 130 134 177 168 55 102 135 164 60 39 64 26 48
94 86 87 85 87 91 91 124 90 104 175 205 209 213 208 205 118 158 165 206 199 186 203 231 233 278 287 213 202 182 173 145 138 126 98 83 90 53 90 81 81 75 49 38
74 72 72 80 86 95 103 106 93 119 122 108 152 75 69 73 136 136 173 182 160 159 87 114 112 159 241 270 277 270 160 100 169 162 140 21 47 19 19 104 105 105 61 9
73 64 60 60 65 79 106 121 106 131 121 135 135 59 32 56 72 189 257 124 127 199 153 196 215 204 175 209 209 199 219 174 193 95 103 30 -24 106 89 135 158 97 105 57
52 49 42 36 44 58 92 103 99 151 186 183 144 143 121 59 104 100 106 158 135 183 213 235 212 227 200 177 144 145 263 217 185 113 99 30 48 67 16 20 97 107 84 143
39 28 22 20 29 49 85 53 61 42 113 125 75 85 48 72 53 -22 -6 189 171 207 220 232 205 261 203 99 126 119 139 148 170 151 102 95 32 -66 -126 -66 -17 14 35 72
29 28 25 12 18 86 126 103 103 136 90 130 119 86 18 31 133 79 101 138 103 89 141 215 186 208 211 199 117 122 182 278 171 122 73 86 75 67 -57 -38 -58 -54 1 47
36 27 23 12 21 74 120 136 85 136 159 145 239 227 246 184 162 113 96 107 152 185 236 263 235 158 215 252 249 225 217 213 239 255 217 167 118 52 51 69 41 -13 39 68
43 38 35 93 115 99 74 12 25 74 162 313 318 315 175 123 90 111 114 115 140 124 226 218 146 199 253 197 165 199 218 189 240 279 268 219 152 121 106 67 34 79 116 85
67 80 45 39 57 122 57 48 130 156 229 330 301 330 365 229 146 119 116 75 78 106 137 133 177 245 212 199 168 138 115 101 89 118 169 240 270 217 186 194 176 71 15 46
46 52 37 75 82 71 101 106 104 88 82 84 80 115 192 134 124 207 122 101 100 144 157 208 181 200 177 180 110 60 42 42 55 106 109 122 133 122 132 134 143 153 152 134
46 57 70 85 56 59 72 56 43 45 50 42 49 -9 49 69 112 148 91 98 143 154 214 224 211 162 129 95 79 68 53 39 28 40 45 133 148 187 186 191 140 163 199 168
91 74 51 51 32 74 85 90 89 75 38 9 31 8 -2 57 99 119 110 132 138 40 275 334 319 89 67 50 17 12 48 34 24 9 15 48 139 158 161 124 102 138 167 152
76 70 57 55 46 35 65 69 18 -19 -53 -19 3 14 3 8 78 75 -3 -32 -25 127 294 359 86 -9 -11 18 35 41 92 108 79 95 125 185 143 134 156 130 182 198 178 172
54 80 53 34 39 58 60 55 17 -19 -31 -73 -70 -44 -32 -3 -42 -64 -57 -22 -10 169 224 72 -108 -88 -62 5 26 -7 13 77 88 99 145 210 241 214 286 235 196 182 222 244
78 93 96 91 95 58 61 35 4 -15 -79 -83 -61 -35 -17 -82 -42 7 71 48 107 53 -36 -86 20 -76 18 19 24 20 48 50 83 133 165 212 236 245 246 237 219 277 286 325
83 72 80 73 71 75 54 36 21 -53 -63 -36 -10 4 -23 20 -10 54 61 2 -45 -72 -116 70 8 10 9 68 62 68 73 68 108 154 208 224 224 248 285 311 373 381 362 360
Wind_Speed
50 56 58 60 63 67 48 44 42 38 32 37 35 34 33 32 29 28 25 26 23 30 33 31 34 35 36 41 37 44 38 41 48 49 47 34 36 41 37 48 48 38 42 44
50 52 54 57 57 55 47 46 41 36 33 40 36 37 36 34 32 27 26 24 24 26 31 38 28 32 35 38 43 42 40 42 61 57 42 44 45 40 31 32 36 34 43 43
44 47 50 53 54 51 43 42 43 43 37 34 39 41 40 36 32 29 27 29 30 28 31 30 38 38 34 50 52 45 39 38 33 43 44 54 47 33 27 24 32 35 25 30
40 45 48 50 53 50 41 37 39 38 44 42 37 38 36 39 40 32 31 30 36 37 39 39 40 41 48 50 47 42 39 47 40 40 36 36 26 23 16 13 10 22 31 29
42 44 46 50 50 48 39 40 42 43 45 45 41 40 39 37 35 32 34 33 39 42 42 43 49 58 49 44 41 42 48 52 63 87 50 46 52 18 10 7 10 6 10 15
38 41 45 45 46 43 38 38 40 40 46 49 47 44 42 40 40 36 35 42 49 48 50 46 53 51 47 40 45 53 53 53 55 59 65 84 55 41 36 34 24 25 21 22
35 39 42 42 43 38 37 37 40 45 50 48 50 50 50 48 43 43 43 53 52 49 56 72 73 69 49 42 37 35 42 42 43 52 70 48 36 57 34 25 19 18 6 8
34 38 41 43 43 36 35 35 36 41 50 49 53 53 53 52 53 50 48 57 58 59 65 69 67 55 61 51 46 43 32 36 45 49 43 54 55 37 45 43 43 46 32 14
39 43 45 43 42 39 33 33 29 38 49 48 41 50 50 52 56 53 47 51 56 44 46 47 54 51 53 57 46 43 30 20 26 38 47 43 40 40 43 38 36 53 42 36
40 41 42 43 41 31 33 35 29 38 49 47 41 49 50 44 49 53 55 54 51 41 44 49 52 52 42 60 56 44 38 38 32 36 49 47 48 48 36 37 46 57 50 43
34 35 37 39 39 35 35 38 34 42 53 52 48 46 47 48 47 55 49 61 44 45 49 50 49 50 43 47 50 47 45 40 45 40 44 53 36 31 42 48 55 56 53 47
36 39 40 40 42 40 37 46 40 39 48 53 51 50 46 47 50 53 44 42 48 44 48 44 49 54 56 52 62 40 53 40 47 36 38 33 34 43 46 48 54 54 52 49
37 38 40 42 43 44 44 44 42 46 57 64 48 43 34 44 42 37 49 46 42 46 45 57 57 61 60 66 63 65 57 52 56 57 53 57 45 39 43 55 60 61 57 48
36 40 43 45 46 47 47 46 45 47 55 69 63 43 37 43 38 38 39 42 43 44 46 52 60 64 57 75 79 80 65 65 66 80 77 79 65 47 58 68 64 62 58 51
40 42 44 46 48 50 51 50 48 43 47 68 73 70 58 44 43 40 37 40 45 53 56 54 61 61 70 79 87 76 65 76 85 102 74 78 83 69 75 76 67 61 58 56
40 43 45 48 50 52 55 59 47 37 34 58 70 51 76 57 39 31 37 38 42 48 54 60 63 60 64 82 94 82 62 54 56 82 95 105 111 104 83 81 68 62 61 56
42 46 50 51 53 51 50 50 45 39 40 56 66 62 42 46 51 46 43 36 41 46 55 61 70 72 69 83 77 95 86 73 72 74 89 102 92 96 90 75 73 72 65 58
47 51 56 59 60 56 54 44 41 38 48 44 52 56 63 50 58 53 37 44 42 48 55 60 65 68 64 85 79 76 90 88 87 84 78 80 84 89 90 86 85 86 82 69
52 58 63 59 49 47 44 40 43 30 26 44 46 58 69 43 48 45 43 41 50 44 48 51 47 54 59 59 69 76 79 80 90 84 82 89 96 95 91 89 85 85 86 74
51 54 53 55 42 46 57 52 45 37 35 40 56 48 52 50 48 48 48 41 43 49 42 33 48 57 32 38 71 89 87 84 83 87 89 87 88 87 84 84 83 89 92 81
48 53 51 46 47 57 44 45 42 36 44 37 42 37 43 36 39 41 39 42 42 48 40 31 45 52 59 64 72 75 78 81 88 85 89 83 83 85 83 81 75 73 73 72
46 50 51 48 42 38 42 42 39 35 40 45 43 55 43 33 32 29 30 33 34 43 30 34 46 54 66 74 79 78 75 74 78 74 82 81 78 75 78 76 71 70 67 57
45 45 45 43 41 44 45 46 42 43 46 46 57 56 44 40 28 29 31 32 21 40 13 4 43 70 79 85 88 90 87 82 77 85 82 78 51 56 62 66 65 60 54 46
44 45 49 43 43 39 38 41 45 44 46 57 66 54 46 50 32 35 51 45 34 16 44 43 71 84 91 94 87 83 82 76 67 63 49 34 15 26 41 42 39 37 38 38
41 40 46 39 38 39 43 45 49 51 57 65 62 61 54 54 54 46 46 46 42 48 57 51 54 74 80 77 69 63 57 50 44 36 30 25 20 14 15 20 18 19 22 26
36 36 42 42 48 51 52 56 56 55 60 60 56 52 50 52 48 47 46 46 48 38 17 12 34 31 61 53 56 57 49 44 39 33 26 22 12 7 11 13 12 10 14 15
36 39 34 39 45 49 51 54 57 56 55 53 50 50 49 46 44 45 43 44 45 37 24 48 35 39 58 34 36 31 21 7 25 32 27 20 11 2 5 14 10 5 5 7
Wind_Direction
337 337 336 336 338 337 353 354 350 6 14 357 2 0 3 7 4 5 1 357 353 344 344 344 340 336 335 337 341 336 346 345 343 351 352 16 15 14 19 13 14 10 4 8
337 338 337 336 338 347 349 348 345 3 4 346 349 352 353 355 355 358 1 354 358 358 345 337 345 340 341 343 337 334 340 339 334 344 358 3 1 8 11 12 11 8 15 14
341 342 341 340 339 344 352 350 344 345 349 350 343 344 344 346 354 350 346 341 339 336 329 331 327 329 339 326 324 328 330 331 334 334 338 341 343 348 356 3 7 13 4 348
342 341 341 341 340 342 348 351 343 344 339 340 341 344 346 344 346 352 353 353 342 335 328 328 325 328 322 326 328 327 324 322 327 327 329 327 302 297 322 345 342 13 19 16
334 339 339 336 339 339 344 342 341 341 334 333 336 338 342 341 340 340 339 338 334 331 327 326 322 320 325 321 328 327 323 319 319 296 332 340 339 313 274 1 20 329 316 337
331 335 337 338 340 345 342 342 338 338 333 330 332 334 335 342 342 341 336 329 322 319 318 321 318 315 308 303 305 307 311 315 320 319 319 308 333 353 4 15 30 29 40 45
326 333 333 335 335 339 337 338 339 333 326 325 324 327 329 327 328 323 321 318 315 315 316 312 311 308 300 288 269 283 298 305 314 317 317 327 336 329 355 19 45 45 75 88
326 329 330 330 330 333 335 338 335 331 325 326 322 321 322 323 321 317 314 308 307 308 309 310 315 318 311 312 304 295 271 291 304 312 322 317 312 331 341 346 359 10 32 99
322 322 324 325 324 329 330 332 336 330 327 329 330 327 327 325 324 324 322 322 321 319 314 311 307 312 313 308 316 321 316 292 290 308 311 325 324 325 331 341 347 348 11 20
323 326 328 329 327 331 333 336 335 328 322 325 323 322 324 329 325 320 321 323 325 321 310 306 305 305 310 301 300 304 306 299 286 291 301 314 309 313 323 323 325 319 344 354
337 339 338 339 342 340 333 333 335 324 319 318 314 314 315 318 320 315 320 321 322 314 307 306 303 304 303 303 298 300 297 296 293 292 297 303 326 330 314 311 312 319 327 345
332 332 333 335 334 334 335 323 332 329 319 315 317 312 303 301 302 310 310 308 312 316 312 313 311 305 302 301 292 302 292 292 293 288 299 309 314 322 323 322 310 313 323 332
331 333 334 334 335 335 334 330 332 330 321 319 319 330 324 308 298 292 302 304 301 300 298 304 303 295 294 291 292 291 291 295 288 290 290 291 296 309 321 322 312 303 307 320
330 330 331 333 333 332 332 329 330 327 323 316 321 333 334 326 313 295 283 286 299 301 297 293 294 292 294 286 285 284 287 294 288 282 284 282 288 292 298 301 310 309 306 312
326 330 332 334 333 332 329 326 323 318 315 313 313 316 313 308 300 298 290 282 286 291 289 288 290 293 291 288 286 282 283 280 278 274 283 282 278 286 288 291 299 309 309 303
331 332 333 332 332 331 331 328 339 338 325 320 320 328 317 322 321 309 296 289 289 286 291 291 290 288 291 290 285 289 286 280 277 282 279 274 271 273 281 283 289 298 303 304
330 330 329 328 328 328 323 324 334 346 344 326 322 325 337 336 334 327 313 305 298 294 292 287 287 287 286 284 274 287 290 287 284 283 281 273 275 271 271 275 279 284 290 298
328 327 326 324 323 322 317 316 309 312 321 326 320 320 317 325 317 319 327 316 308 302 295 297 291 293 284 284 287 288 286 283 282 281 279 277 277 276 271 272 274 272 272 281
327 326 325 327 332 330 334 341 340 340 315 320 319 318 319 335 327 327 327 322 313 313 301 300 301 294 293 296 296 293 291 285 283 282 280 276 273 273 272 270 270 268 267 272
333 332 332 327 337 340 334 332 327 325 316 311 311 318 309 322 325 325 327 328 321 319 318 324 303 297 281 292 297 289 292 289 287 282 277 274 272 271 272 272 269 265 264 269
336 332 329 334 334 328 331 328 329 330 328 331 332 327 318 329 316 320 331 330 329 324 328 324 323 318 309 304 300 302 298 293 285 282 280 279 275 272 272 271 272 268 263 262
335 331 331 336 338 335 331 329 333 329 333 341 338 336 334 331 329 335 338 338 344 332 357 340 329 318 314 308 304 307 308 305 298 294 284 281 277 272 268 268 269 267 266 263
339 337 334 335 334 323 324 324 327 329 336 338 335 333 325 317 332 336 342 342 214 254 155 65 333 308 310 309 303 297 296 299 298 278 259 272 289 277 268 266 269 268 259 253
335 332 325 327 325 326 330 329 326 328 327 326 305 316 305 287 319 321 271 243 231 216 336 346 313 311 314 314 313 313 302 302 305 298 296 292 291 291 276 270 269 258 247 245
332 332 324 324 327 329 328 329 328 326 320 294 285 278 272 276 248 231 240 255 251 317 319 313 294 304 313 324 328 334 334 329 328 326 318 307 301 287 286 274 273 258 241 235
331 325 321 324 323 322 324 324 323 320 290 272 266 271 268 245 247 251 263 263 283 264 260 312 13 296 2 329 347 2 352 353 355 355 356 5 334 299 266 259 264 263 235 225
330 327 328 324 324 325 327 325 315 285 270 267 265 258 244 260 256 267 283 270 276 271 267 24 348 323 5 325 333 334 332 321 356 11 9 13 22 91 156 205 250 224 161 139